Weather History for YMML - March, 2014

Change the Weather History Date:

Wednesday, March 19, 2014

  Actual Average Record
Temperature  
Mean Temperature 60 °F -  
Max Temperature 71 °F 68 °F 91 °F (2015)
Min Temperature 48 °F 49 °F 48 °F (2011)
Degree Days  
Heating Degree Days 6    
Growing Degree Days 10 (Base 50)    
Moisture  
Dew Point 49 °F    
Average Humidity 66    
Maximum Humidity 94    
Minimum Humidity 35    
Precipitation  
Precipitation 0.00 in 0.06 in - ()
Sea Level Pressure  
Sea Level Pressure 30.30 in    
Wind  
Wind Speed 8 mph ()    
Max Wind Speed 13 mph    
Max Gust Speed -    
Visibility 7.9 miles    
Events      
Averages and records for this station are not official NWS values.
T = Trace of Precipitation, MM = Missing Value Source: Averaged Metar Reports

Daily Weather History Graph

Daily Weather History Graph

Search for Another Location

Airport or City:

Trip Planner

Search our weather history database for the weather conditions in past years. The results will help you decide how hot, cold, wet, or windy it might be!

Date:

Astronomy

Mar. 19, 2014 Rise Set
Actual Time 7:22 AM AEDT 7:34 PM AEDT
Civil Twilight 6:55 AM AEDT 8:00 PM AEDT
Nautical Twilight 6:25 AM AEDT 8:31 PM AEDT
Astronomical Twilight 5:54 AM AEDT 9:02 PM AEDT
Moon 8:50 PM AEDT (3/19) 9:34 AM AEDT (3/19)
Length of Visible Light 13h 04m
Length of Day
12h 12m
Waning Gibbous, 94% of the Moon is Illuminated
Mar 19
Waning Gibbous
Mar 24
Last Quarter
Mar 31
New
Apr 7
First Quarter
Apr 15
Full

Hourly Weather History & Observations

Time (AEDT) Temp. Dew Point Humidity Pressure Visibility Wind Dir Wind Speed Gust Speed Precip Events Conditions
12:00 AM 56 °F 53 °F 85% 30.27 in 16 mi WNW 8.1 mph - -   Haze
12:00 AM 55.4 °F 53.6 °F 94% 30.27 in 6.2 mi WNW 8.1 mph - N/A   Scattered Clouds
12:30 AM 55.4 °F 51.8 °F 88% 30.27 in 6.2 mi WNW 6.9 mph - N/A   Partly Cloudy
1:00 AM 54 °F 50 °F 83% 30.27 in - West 6.9 mph - -  
1:00 AM 53.6 °F 50.0 °F 88% 30.27 in 6.2 mi West 6.9 mph - N/A   Partly Cloudy
1:30 AM 53.6 °F 50.0 °F 88% 30.27 in 6.2 mi West 8.1 mph - N/A   Partly Cloudy
2:00 AM 53 °F 50 °F 85% 30.27 in - West 8.1 mph - -  
2:00 AM 53.6 °F 50.0 °F 88% 30.27 in 6.2 mi West 8.1 mph - N/A   Partly Cloudy
2:30 AM 53.6 °F 50.0 °F 88% 30.27 in 6.2 mi WNW 8.1 mph - N/A   Scattered Clouds
3:00 AM 55 °F 50 °F 76% 30.27 in 16 mi WNW 9.2 mph - -   Haze
3:00 AM 55.4 °F 50.0 °F 82% 30.27 in 6.2 mi WNW 9.2 mph - N/A   Mostly Cloudy
3:30 AM 55.4 °F 48.2 °F 77% 30.27 in 6.2 mi WNW 8.1 mph - N/A   Mostly Cloudy
4:00 AM 54 °F 48 °F 73% 30.26 in - WNW 9.2 mph - -  
4:00 AM 53.6 °F 48.2 °F 82% 30.24 in 6.2 mi WNW 9.2 mph - N/A   Scattered Clouds
4:30 AM 53.6 °F 48.2 °F 82% 30.24 in 6.2 mi WNW 8.1 mph - N/A   Partly Cloudy
5:00 AM 51 °F 47 °F 83% 30.27 in - North 5.8 mph - -  
5:00 AM 51.8 °F 48.2 °F 88% 30.27 in 6.2 mi North 5.8 mph - N/A   Partly Cloudy
5:30 AM 51.8 °F 46.4 °F 82% 30.27 in 6.2 mi NW 4.6 mph - N/A   Partly Cloudy
6:00 AM 49 °F 47 °F 89% 30.28 in 16 mi North 4.6 mph - -   Haze
6:00 AM 50.0 °F 46.4 °F 87% 30.27 in 6.2 mi North 4.6 mph - N/A   Partly Cloudy
6:30 AM 50.0 °F 46.4 °F 87% 30.27 in 6.2 mi WNW 8.1 mph - N/A   Partly Cloudy
7:00 AM 51 °F 48 °F 86% 30.30 in - WNW 8.1 mph - -  
7:00 AM 51.8 °F 48.2 °F 88% 30.30 in 6.2 mi WNW 8.1 mph - N/A   Partly Cloudy
7:30 AM 51.8 °F 48.2 °F 88% 30.30 in 6.2 mi WNW 9.2 mph - N/A   Partly Cloudy
8:00 AM 53 °F 48 °F 79% 30.32 in - North 6.9 mph - -  
8:00 AM 53.6 °F 48.2 °F 82% 30.33 in 6.2 mi North 6.9 mph - N/A   Partly Cloudy
8:30 AM 55.4 °F 50.0 °F 82% 30.33 in 6.2 mi West 9.2 mph - N/A   Partly Cloudy
9:00 AM 58 °F 50 °F 68% 30.35 in 12 mi WNW 6.9 mph - -   Haze
9:00 AM 57.2 °F 50.0 °F 77% 30.33 in 6.2 mi WNW 6.9 mph - N/A   Partly Cloudy
9:30 AM 59.0 °F 50.0 °F 72% 30.36 in - West 4.6 mph - N/A   Clear
10:00 AM 61 °F 50 °F 57% 30.36 in - South 8.1 mph - -  
10:00 AM 60.8 °F 50.0 °F 68% 30.36 in 6.2 mi South 8.1 mph - N/A   Partly Cloudy
10:30 AM 62.6 °F 50.0 °F 63% 30.36 in 6.2 mi South 8.1 mph - N/A   Partly Cloudy
11:00 AM 64 °F 48 °F 46% 30.35 in - South 9.2 mph - -  
11:00 AM 64.4 °F 48.2 °F 56% 30.36 in 6.2 mi South 9.2 mph - N/A   Partly Cloudy
11:30 AM 66.2 °F 48.2 °F 52% 30.33 in 6.2 mi SSE 9.2 mph - N/A   Partly Cloudy
12:00 PM 67 °F 48 °F 40% 30.34 in 16 mi SSW 10.4 mph - -   Haze
12:00 PM 66.2 °F 48.2 °F 52% 30.33 in 6.2 mi South 10.4 mph - N/A   Partly Cloudy
12:30 PM 68.0 °F 50.0 °F 52% 30.33 in 6.2 mi SSW 9.2 mph - N/A   Partly Cloudy
1:00 PM 70 °F 49 °F 36% 30.32 in - SSE 9.2 mph - -  
1:00 PM 69.8 °F 48.2 °F 46% 30.33 in 6.2 mi SSE 9.2 mph - N/A   Partly Cloudy
1:30 PM 68.0 °F 50.0 °F 52% 30.30 in 6.2 mi SSE 9.2 mph - N/A   Partly Cloudy
2:00 PM 67 °F 48 °F 40% 30.31 in - SE 9.2 mph - -  
2:00 PM 66.2 °F 48.2 °F 52% 30.30 in 6.2 mi SE 9.2 mph - N/A   Partly Cloudy
2:30 PM 68.0 °F 48.2 °F 49% 30.30 in 6.2 mi SSE 8.1 mph - N/A   Partly Cloudy
3:00 PM 70 °F 50 °F 38% 30.30 in 16 mi South 10.4 mph - -   Haze
3:00 PM 69.8 °F 50.0 °F 49% 30.30 in 6.2 mi South 10.4 mph - N/A   Partly Cloudy
3:30 PM 69.8 °F 50.0 °F 49% 30.27 in 6.2 mi SSW 8.1 mph - N/A   Partly Cloudy
4:00 PM 71 °F 49 °F 35% 30.27 in - SSE 8.1 mph - -  
4:00 PM 71.6 °F 50.0 °F 46% 30.27 in 6.2 mi SSE 8.1 mph - N/A   Partly Cloudy
4:30 PM 71.6 °F 48.2 °F 43% 30.27 in - South 10.4 mph - N/A   Clear
5:00 PM 71 °F 49 °F 35% 30.28 in - South 11.5 mph - -  
5:00 PM 69.8 °F 50.0 °F 49% 30.27 in - South 11.5 mph - N/A   Clear
5:30 PM 68.0 °F 50.0 °F 52% 30.27 in - South 11.5 mph - N/A   Clear
6:00 PM 69 °F 50 °F 39% 30.28 in 12 mi South 11.5 mph - -   Haze
6:00 PM 68.0 °F 50.0 °F 52% 30.27 in - South 11.5 mph - N/A   Clear
6:30 PM 68.0 °F 50.0 °F 52% 30.27 in - South 12.7 mph - N/A   Clear
7:00 PM 65 °F 50 °F 48% 30.29 in - South 11.5 mph - -  
7:00 PM 66.2 °F 50.0 °F 56% 30.27 in - South 11.5 mph - N/A   Clear
7:30 PM 62.6 °F 50.0 °F 63% 30.30 in - South 8.1 mph - N/A   Clear
8:00 PM 62 °F 51 °F 59% 30.30 in - South 8.1 mph - -  
8:00 PM 62.6 °F 51.8 °F 68% 30.30 in - South 8.1 mph - N/A   Clear
8:30 PM 60.8 °F 51.8 °F 72% 30.30 in - South 8.1 mph - N/A   Clear
9:00 PM 61 °F 51 °F 60% 30.32 in 12 mi South 9.2 mph - -   Haze
9:00 PM 60.8 °F 50.0 °F 68% 30.30 in - South 9.2 mph - N/A   Clear
9:30 PM 60.8 °F 48.2 °F 63% 30.30 in - SE 12.7 mph - N/A   Clear
10:00 PM 60 °F 49 °F 58% 30.32 in - ESE 6.9 mph - -  
10:00 PM 59.0 °F 50.0 °F 72% 30.30 in - ESE 6.9 mph - N/A   Clear
10:30 PM 57.2 °F 48.2 °F 72% 30.30 in - East 3.5 mph - N/A   Clear
11:00 PM 56 °F 49 °F 70% 30.31 in - SSW 4.6 mph - -  
11:00 PM 57.2 °F 48.2 °F 72% 30.30 in - SSW 4.6 mph - N/A   Clear
11:30 PM 55.4 °F 48.2 °F 77% 30.30 in - WSW 4.6 mph - N/A   Clear